HB4LO-13 Weather Reports


Display with metric or nautical units.
time (UTC)temp
F
wind
direction
speed
MPH
gust
MPH
rain 1hr
in
rain 24hr
in
rain mn
in
humidity
%
barometer
mb
20260505165506 61 185 2.0 5.0 0.00 0.01 0.01 62
20260505165406 61 186 2.0 5.0 0.00 0.01 0.01 62
20260505165306 62 164 1.0 4.0 0.00 0.01 0.01 62
20260505165206 62 168 2.0 4.0 0.00 0.01 0.01 62
20260505165106 62 186 1.0 4.0 0.00 0.01 0.01 62
20260505165006 62 162 0.0 5.0 0.00 0.01 0.01 62
20260505164906 61 188 1.0 5.0 0.00 0.01 0.01 62
20260505164806 61 187 0.0 5.0 0.00 0.01 0.01 62
20260505164706 61 185 1.0 5.0 0.00 0.01 0.01 62
20260505164606 61 185 3.0 5.0 0.00 0.01 0.01 62
20260505164506 61 148 0.0 4.0 0.00 0.01 0.01 62
20260505164406 61 174 1.0 4.0 0.00 0.01 0.01 62
20260505164306 60 170 0.0 4.0 0.00 0.01 0.01 62
20260505164206 60 170 2.0 5.0 0.00 0.01 0.01 62
20260505164106 60 159 1.0 5.0 0.00 0.01 0.01 62
20260505164006 60 174 0.0 5.0 0.00 0.01 0.01 62
20260505163906 60 186 2.0 5.0 0.00 0.01 0.01 62
20260505163806 60 169 2.0 5.0 0.00 0.01 0.01 62
20260505163706 60 350 0.0 2.0 0.00 0.01 0.01 62
20260505163606 60 350 0.0 4.0 0.00 0.01 0.01 62
20260505163506 60 188 0.0 4.0 0.00 0.01 0.01 62
20260505163406 60 188 0.0 4.0 0.00 0.01 0.01 62
20260505163306 60 192 0.0 4.0 0.00 0.01 0.01 62
20260505163206 60 326 0.0 4.0 0.00 0.01 0.01 62
20260505163107 60 28 0.0 2.0 0.00 0.01 0.01 62
20260505163007 60 28 0.0 2.0 0.00 0.01 0.01 62
20260505162906 60 29 0.0 2.0 0.00 0.01 0.01 62
20260505162806 60 32 0.0 2.0 0.00 0.01 0.01 62
20260505162706 60 31 0.0 2.0 0.00 0.01 0.01 62
20260505162606 60 32 0.0 2.0 0.00 0.01 0.01 62
20260505162506 61 32 0.0 2.0 0.00 0.01 0.01 62
20260505162406 61 30 0.0 4.0 0.00 0.01 0.01 62
20260505162307 61 36 0.0 4.0 0.00 0.01 0.01 62
20260505162206 61 173 0.0 4.0 0.00 0.01 0.01 62
20260505162106 62 172 0.0 4.0 0.00 0.01 0.01 62
20260505162006 62 172 1.0 4.0 0.00 0.01 0.01 62
20260505161906 62 176 1.0 4.0 0.00 0.01 0.01 62
20260505161806 62 190 0.0 2.0 0.00 0.01 0.01 62
20260505161706 62 352 0.0 4.0 0.00 0.01 0.01 62
20260505161606 62 50 0.0 5.0 0.00 0.01 0.01 62
20260505161506 62 173 0.0 5.0 0.00 0.01 0.01 62
20260505161406 62 170 0.0 7.0 0.00 0.01 0.01 62
20260505161306 62 177 1.0 7.0 0.00 0.01 0.01 62
20260505161206 62 176 3.0 7.0 0.00 0.01 0.01 62
20260505161106 63 185 2.0 7.0 0.00 0.01 0.01 62
20260505161006 63 201 2.0 7.0 0.00 0.01 0.01 62
20260505160906 63 154 1.0 4.0 0.00 0.01 0.01 62
20260505160806 63 170 1.0 7.0 0.00 0.01 0.01 62
20260505160706 63 177 1.0 7.0 0.00 0.01 0.01 62
20260505160606 63 144 1.0 7.0 0.00 0.01 0.01 62
20260505160506 62 186 1.0 7.0 0.00 0.01 0.01 62
20260505160406 62 181 4.0 7.0 0.00 0.01 0.01 62
20260505160306 63 177 4.0 7.0 0.00 0.01 0.01 62
20260505160206 62 178 3.0 7.0 0.00 0.01 0.01 62
20260505160106 62 186 3.0 7.0 0.00 0.01 0.01 62
20260505153306 62 185 3.0 8.0 0.00 0.01 0.01 62
20260505153206 62 184 4.0 8.0 0.00 0.01 0.01 62
20260505153107 62 185 5.0 8.0 0.00 0.01 0.01 62
20260505153006 61 183 4.0 8.0 0.00 0.01 0.01 62
20260505152906 61 174 4.0 8.0 0.00 0.01 0.01 62
20260505152806 61 184 5.0 10.0 0.00 0.01 0.01 62
20260505152706 61 167 5.0 10.0 0.00 0.01 0.01 62
20260505152606 61 173 4.0 10.0 0.00 0.01 0.01 62
20260505152506 61 172 5.0 10.0 0.00 0.01 0.01 62
20260505152406 61 173 5.0 10.0 0.00 0.01 0.01 62
20260505152306 61 184 2.0 7.0 0.00 0.01 0.01 62
20260505152206 61 167 4.0 7.0 0.00 0.01 0.01 62
20260505152106 61 171 4.0 5.0 0.00 0.01 0.01 62
20260505152006 61 170 4.0 8.0 0.00 0.01 0.01 62
20260505151906 61 177 3.0 8.0 0.00 0.01 0.01 62
20260505151806 61 182 2.0 8.0 0.00 0.01 0.01 62
20260505151706 60 187 2.0 8.0 0.00 0.01 0.01 62
20260505151606 60 187 4.0 8.0 0.00 0.01 0.01 62
20260505151506 60 174 5.0 8.0 0.00 0.01 0.01 62
20260505151406 60 173 3.0 7.0 0.00 0.01 0.01 62
20260505151306 60 174 2.0 8.0 0.00 0.01 0.01 62
20260505151206 60 178 2.0 8.0 0.00 0.01 0.01 62
20260505151106 60 168 2.0 8.0 0.00 0.01 0.01 62
20260505151006 60 183 2.0 8.0 0.00 0.01 0.01 62
20260505150906 60 182 2.0 8.0 0.00 0.01 0.01 62
20260505150806 60 171 2.0 8.0 0.00 0.01 0.01 62
20260505150706 60 184 3.0 8.0 0.00 0.01 0.01 62
20260505150606 60 187 3.0 8.0 0.00 0.01 0.01 62
20260505150506 60 164 4.0 8.0 0.00 0.01 0.01 62
20260505150406 59 184 4.0 8.0 0.00 0.01 0.01 62
20260505150306 60 170 4.0 7.0 0.00 0.01 0.01 62
20260505150206 59 164 2.0 8.0 0.00 0.01 0.01 62
20260505150106 59 186 2.0 8.0 0.00 0.01 0.01 62
20260505140606 61 186 7.0 10.0 0.00 0.01 0.01 62
20260505140506 61 187 5.0 10.0 0.00 0.01 0.01 62
20260505140406 60 174 5.0 10.0 0.00 0.01 0.01 62
20260505140306 60 193 5.0 10.0 0.00 0.01 0.01 62
20260505140206 60 189 5.0 10.0 0.00 0.01 0.01 62
20260505140106 60 171 4.0 10.0 0.00 0.01 0.01 62
20260505130306 57 174 1.0 5.0 0.00 0.01 0.01 62
20260505130206 57 175 1.0 5.0 0.00 0.01 0.01 62
20260505130106 57 171 3.0 5.0 0.00 0.01 0.01 62
20260505125006 57 177 0.0 2.0 0.00 0.01 0.01 62
20260505124906 57 172 1.0 2.0 0.00 0.01 0.01 62
20260505124806 57 168 1.0 2.0 0.00 0.01 0.01 62
20260505124706 58 166 0.0 2.0 0.00 0.01 0.01 62
20260505124606 57 186 1.0 4.0 0.00 0.01 0.01 62
20260505124506 57 170 0.0 5.0 0.00 0.01 0.01 62
20260505124406 58 20 0.0 5.0 0.00 0.01 0.01 62
20260505124306 58 158 0.0 5.0 0.00 0.01 0.01 62
20260505124206 58 163 1.0 5.0 0.00 0.01 0.01 62
20260505124106 58 171 3.0 5.0 0.00 0.01 0.01 62
20260505124006 58 174 1.0 4.0 0.00 0.01 0.01 62
20260505123906 58 171 2.0 4.0 0.00 0.01 0.01 62
20260505123806 58 167 2.0 5.0 0.00 0.01 0.01 62
20260505123706 58 174 2.0 5.0 0.00 0.01 0.01 62
20260505123606 58 173 1.0 5.0 0.00 0.01 0.01 62
20260505123506 58 171 2.0 5.0 0.00 0.01 0.01 62
20260505123406 58 175 3.0 7.0 0.00 0.01 0.01 62
20260505123306 58 171 1.0 7.0 0.00 0.01 0.01 62
20260505123206 59 155 3.0 7.0 0.00 0.01 0.01 62
20260505123106 59 185 3.0 10.0 0.00 0.01 0.01 62
20260505123006 59 187 3.0 10.0 0.00 0.01 0.01 62
20260505122906 59 185 4.0 10.0 0.00 0.01 0.01 62
20260505122806 59 174 3.0 10.0 0.00 0.01 0.01 62
20260505122706 59 183 5.0 10.0 0.00 0.01 0.01 62
20260505122606 59 166 6.0 10.0 0.00 0.01 0.01 62
20260505122506 59 172 5.0 10.0 0.00 0.01 0.01 62
20260505122406 59 190 5.0 10.0 0.01 0.01 0.01 62
20260505122306 60 185 5.0 10.0 0.01 0.01 0.01 62
20260505122206 60 183 4.0 10.0 0.01 0.01 0.01 62
20260505122106 60 174 2.0 8.0 0.01 0.01 0.01 62
20260505122006 60 188 3.0 8.0 0.01 0.01 0.01 62
20260505121906 60 212 5.0 8.0 0.01 0.01 0.01 62
20260505121806 60 168 5.0 8.0 0.01 0.01 0.01 62
20260505121706 60 163 4.0 8.0 0.01 0.01 0.01 62
20260505121606 60 183 4.0 8.0 0.01 0.01 0.01 62
20260505121506 60 175 4.0 10.0 0.01 0.01 0.01 62
20260505121406 60 145 4.0 10.0 0.01 0.01 0.01 62
20260505121306 60 185 5.0 10.0 0.01 0.01 0.01 62
20260505121206 60 169 3.0 10.0 0.01 0.01 0.01 62
20260505121106 61 181 5.0 10.0 0.01 0.01 0.01 62
20260505121006 61 176 4.0 8.0 0.01 0.01 0.01 62
20260505120906 61 182 4.0 8.0 0.01 0.01 0.01 62
20260505120806 61 184 3.0 10.0 0.01 0.01 0.01 62
20260505120706 61 170 3.0 11.0 0.01 0.01 0.01 62
20260505120652 61 183 5.0 11.0 0.01 0.01 0.01 62
20260505120606 61 183 5.0 11.0 0.01 0.01 0.01 62
20260505120506 61 176 5.0 11.0 0.01 0.01 0.01 62
20260505120406 61 184 6.0 11.0 0.01 0.01 0.01 62
20260505120306 61 172 5.0 11.0 0.01 0.01 0.01 62
20260505120206 61 174 5.0 8.0 0.01 0.01 0.01 62
20260505120106 61 187 5.0 8.0 0.01 0.01 0.01 62
20260505120006 61 172 4.0 8.0 0.01 0.01 0.01 62
20260505115906 61 171 4.0 8.0 0.01 0.01 0.01 62
20260505115806 61 171 4.0 8.0 0.01 0.01 0.01 62
20260505115706 61 182 3.0 8.0 0.01 0.01 0.01 62
20260505115606 61 183 4.0 8.0 0.01 0.01 0.01 62
20260505115506 61 194 4.0 8.0 0.01 0.01 0.01 62
20260505115406 61 177 6.0 8.0 0.01 0.01 0.01 62
20260505115306 61 182 4.0 8.0 0.01 0.01 0.01 62
20260505115206 61 166 5.0 8.0 0.01 0.01 0.01 62
20260505115106 62 166 5.0 8.0 0.01 0.01 0.01 62
20260505115006 62 183 3.0 5.0 0.01 0.01 0.01 62
20260505114906 62 187 2.0 5.0 0.01 0.01 0.01 62
20260505114806 62 207 2.0 5.0 0.01 0.01 0.01 62
20260505114706 62 170 4.0 7.0 0.01 0.01 0.01 62
20260505114606 62 172 4.0 7.0 0.01 0.01 0.01 62
20260505114506 62 184 3.0 7.0 0.01 0.01 0.01 62
20260505114406 62 181 2.0 8.0 0.01 0.01 0.01 62
20260505114306 62 188 4.0 8.0 0.01 0.01 0.01 62
20260505114206 62 169 4.0 8.0 0.01 0.01 0.01 62
20260505114106 63 187 3.0 8.0 0.01 0.01 0.01 62
20260505114006 63 163 5.0 8.0 0.01 0.01 0.01 62
20260505113906 63 185 2.0 5.0 0.01 0.01 0.01 62
20260505113806 63 158 2.0 4.0 0.01 0.01 0.01 62
20260505113706 63 177 2.0 4.0 0.01 0.01 0.01 62
20260505113606 63 173 1.0 5.0 0.01 0.01 0.01 62
20260505113506 63 171 1.0 5.0 0.01 0.01 0.01 62
20260505113406 63 332 1.0 5.0 0.01 0.01 0.01 62
20260505113306 63 177 3.0 5.0 0.01 0.01 0.01 62
20260505113206 63 173 3.0 5.0 0.01 0.01 0.01 62
20260505113106 63 189 3.0 4.0 0.01 0.01 0.01 62
20260505113006 63 173 2.0 4.0 0.01 0.01 0.01 62
20260505112906 63 186 1.0 4.0 0.01 0.01 0.01 62
20260505112806 63 174 1.0 4.0 0.01 0.01 0.01 62
20260505112706 63 182 2.0 4.0 0.01 0.01 0.01 62
20260505112606 63 174 2.0 4.0 0.01 0.01 0.01 62
20260505112506 63 195 0.0 2.0 0.00 0.00 0.00 62
20260505112406 62 328 0.0 2.0 0.00 0.00 0.00 62
20260505112306 62 5 0.0 2.0 0.00 0.00 0.00 63
20260505112206 62 26 0.0 2.0 0.00 0.00 0.00 64